Regional Weather Roundup
Issued by NWS

Home | Current Version | Previous Version | Graphics & Text | Print | Product List | Glossary On
Versions: 1 2 3 4 5 6 7 8 9 10 11 12 13 14 15 16 17 18 19 20 21 22 23 24 25 26 27 28 29 30 31 32 33 34 35 36 37 38 39 40 41 42 43 44 45 46 47 48 49 50
000
ASUS45 KBOU 262007
RWRCO

WEATHER ROUNDUP FOR COLORADO
NATIONAL WEATHER SERVICE DENVER/BOULDER CO
200 PM MDT TUE MAY 26 2015

NOTE: "FAIR" INDICATES FEW OR NO CLOUDS BELOW 12000 FEET WITH NO
SIGNIFICANT WEATHER AND/OR OBSTRUCTIONS TO VISIBILITY.

COZ001>005-013-030-031-262100-
...NORTHWEST COLORADO...

CITY           SKY/WX    TMP DP  RH WIND       PRES   REMARKS
CRAIG          RAIN      50  44  80 S23G32    30.11R
HAYDEN         PTSUNNY   61  37  41 W8        30.08F THUNDER
MEEKER         LGT RAIN  50  45  83 E9        30.13F
MOUNT WERNER   NOT AVBL
STEAMBOAT SPGS PTSUNNY   58  43  57 E15       30.09F
WALDEN         PTSUNNY   50  36  57 NW14      30.16R
$$

COZ006>008-011-262100-
...WEST CENTRAL VALLEYS...

CITY           SKY/WX    TMP DP  RH WIND       PRES   REMARKS
GRAND JUNCTION PTSUNNY   67  45  45 SE12G20   30.03S
MONTROSE       LGT RAIN  58  46  64 SE20G30   30.11R
EAGLE          MOSUNNY   64  39  39 S8        30.10F
RIFLE          CLOUDY    62  43  49 N10G21    30.07S THUNDER
DELTA          CLOUDY    62  48  60 MISG      30.06S
NUCLA          PTSUNNY   61  39  44 W12G23    30.14R THUNDER
$$

COZ017>023-064>068-262100-
...SOUTHWEST COLORADO...

CITY           SKY/WX    TMP DP  RH WIND       PRES   REMARKS
DURANGO        MOSUNNY   63  38  39 VRB6      30.15S
CORTEZ         PTSUNNY   68  39  34 CALM      30.11F
PAGOSA SPRINGS CLOUDY    60  35  40 NW14G23   30.19S
TELLURIDE      CLOUDY    46  40  79 E8        30.29F
WOLF CREEK PAS NOT AVBL
$$

COZ009-010-012-014-032>034-037-058>063-262100-
...CENTRAL COLORADO...

CITY           SKY/WX    TMP DP  RH WIND       PRES   REMARKS
ASPEN          PTSUNNY   57  39  51 N7        30.15S
BUENA VISTA    MOSUNNY   64  21  19 W3G16     30.12F
COPPER MTN     SUNNY     41  28  60 SW12G20   30.34F
BERTHOUD PASS  FAIR      32  23  69 W15G25    30.36S WCI  22
COTTONWOOD PAS PTSUNNY   55  16  21 SW6G24    30.23F
GUNNISON       MOSUNNY   61  30  31 W8        30.17F
KREMMLING      LGT RAIN  50  37  62 N14       30.18R
LEADVILLE      MOSUNNY   52  27  38 N12G17    30.22F
MONARCH PASS   PTSUNNY   37  23  56 W29G36    30.44S
SALIDA         PTSUNNY   69  27  20 SW16G23   30.19S
SUNLIGHT       CLOUDY    43  36  75 NW7       30.32S
WILKERSON PASS MOSUNNY   46  28  49 S5        30.33S
$$

COZ069>075-262100-
...SAN LUIS VALLEY/SANGRE DE CRISTO MOUNTAINS...

CITY           SKY/WX    TMP DP  RH WIND       PRES   REMARKS
ALAMOSA        MOSUNNY   63  30  28 VRB5      30.14F
LA VETA PASS   MOSUNNY  N/A N/A N/A MISG      30.29S
SAGUACHE       PTSUNNY   61  32  33 S7G16     30.16F
$$

COZ035-036-038>040-262100-
...NORTHERN COLORADO FRONT RANGE...

CITY           SKY/WX    TMP DP  RH WIND       PRES   REMARKS
DENVER INTL AP PTSUNNY   68  39  34 MISG      30.02F
DMNS CITY PARK   N/A     69  35  28 CALM      30.01S
AURORA         MOSUNNY   68  37  31 E3        30.04F
FRONT RANGE AP PTSUNNY   68  45  42 CALM      30.04F
ERIE MUNI ARPT   N/A     67  40  37 CALM      30.01S
BOULDER MUN AP PTSUNNY   68  45  42 N7        30.01S
CENTENNIAL     PTSUNNY   67  37  33 N8        30.04F
BROOMFIELD     NOT AVBL
FORT COLLINS   MOSUNNY   68  46  45 SE5       30.01F
LONGMONT       MOSUNNY   66  50  57 E3        30.03F
$$

COZ041-046-047-076>085-087-088-262100-
...PIKES PEAK/PALMER DIVIDE AND SOUTHERN FOOTHILLS...

CITY           SKY/WX    TMP DP  RH WIND       PRES   REMARKS
COLO. SPRINGS  PTSUNNY   64  40  41 SE8       30.09F
A. F. ACADEMY  MOSUNNY   61  41  48 S13       30.09S
ELLICOTT       PTSUNNY  N/A N/A N/A S12       30.08F
FALCON         MOSUNNY   63  39  41 S13       30.12F
FORT CARSON    PTSUNNY   64  46  52 SE10      30.07F
LIMON          MOSUNNY   64  45  49 S12       30.07F
MONUMENT HILL  CLOUDY    59  37  44 NW5       30.12F
TRINIDAD       MOSUNNY   68  44  42 VRB3      30.07F
$$

COZ042>045-048>051-090-091-262100-
...NORTHEAST COLORADO...

CITY           SKY/WX    TMP DP  RH WIND       PRES   REMARKS
GREELEY ARPT   SUNNY     72  45  37 SE8       30.01S
AKRON          CLOUDY    67  46  47 NE6       30.03F
BURLINGTON     PTSUNNY   70  48  45 W6        30.02F
WRAY           CLOUDY    70  50  50 N8        30.01F
STERLING       PTSUNNY   66  52  59 S7        30.00S
HOLYOKE        MOSUNNY   66  48  52 E3        30.01F
FORT MORGAN    PTSUNNY   69  48  46 E8        30.02S
$$

COZ086-089-092>099-262100-
...SOUTHEAST COLORADO...

CITY           SKY/WX    TMP DP  RH WIND       PRES   REMARKS
PUEBLO         MOSUNNY   71  45  39 E9G17     30.01F
LA JUNTA       SUNNY     72  49  44 SE5       30.02F
LAMAR          SUNNY     72  48  42 NW7       29.99F
SPRINGFIELD      N/A     72  47  40 VRB3      30.03F
$$



USA.gov is the U.S. government's official web portal to all federal, state and local government web resources and services.